Date,TemperatureHighF,TemperatureAvgF,TemperatureLowF,DewpointHighF,DewpointAvgF,DewpointLowF,HumidityHigh,HumidityAvg,HumidityLow,PressureMaxIn,PressureMinIn,WindSpeedMaxMPH,WindSpeedAvgMPH,GustSpeedMaxMPH,PrecipitationSumIn
2012-1-8,39,28,19,26,18,13,78,64,52,30.02,29.91,7,3,0,0.00
2012-1-9,36,24,17,22,17,13,86,76,53,29.98,29.67,8,2,0,0.43
2012-1-10,39,29,19,30,23,16,90,78,63,29.93,29.64,7,2,0,0.00
2012-1-11,34,28,22,25,21,18,88,77,62,30.21,29.93,5,2,0,0.00
2012-1-12,32,30,28,31,28,24,98,93,84,29.92,29.37,6,0,0,0.00
2012-1-13,37,30,23,34,28,20,98,92,79,30.39,29.36,10,1,0,0.08
2012-1-14,28,20,1,24,14,-4,91,77,55,30.76,29.73,11,4,0,0.00
2012-1-15,11,2,-6,-3,-6,-10,84,70,52,30.87,29.99,11,3,0,0.00
2012-1-16,24,8,-12,20,0,-18,84,71,52,30.79,30.00,9,3,0,0.00
2012-1-17,37,30,23,36,28,20,98,93,82,30.34,29.68,6,2,0,0.38
2012-1-18,43,30,18,40,18,5,98,62,45,30.15,29.51,18,6,0,0.20
2012-1-20,8,8,6,5,-1,-73,86,79,84,30.22,29.88,3,1,0,0.00
2012-1-21,19,11,-3,12,5,-7,87,79,63,30.48,29.50,5,2,0,0.00
2012-1-22,26,8,-8,14,2,-13,89,75,46,30.61,29.78,7,2,0,0.00
2012-1-23,34,26,16,32,24,12,98,92,85,30.31,29.56,4,1,0,0.66
2012-1-24,43,35,32,39,33,28,98,92,73,30.38,29.45,11,2,0,0.40
2012-1-25,36,33,28,29,26,24,88,76,68,30.37,29.91,10,3,0,0.00
2012-1-26,39,32,24,32,26,21,98,81,52,30.10,29.57,6,2,0,0.00
2012-1-27,37,34,32,35,33,30,98,96,80,30.06,29.23,11,1,0,4.79
2012-1-28,43,36,28,31,28,24,94,75,57,30.28,29.58,12,4,0,0.65
2012-1-29,40,31,21,24,20,15,94,64,44,30.39,29.74,17,5,0,0.39
2012-1-30,35,25,15,26,17,11,95,72,41,30.42,29.56,13,3,0,1.08
2012-1-31,38,28,17,29,24,14,95,84,62,30.43,29.58,5,1,0,0.02
2012-2-1,52,36,27,45,33,26,97,89,69,30.29,29.50,13,3,0,0.02
2012-2-2,36,32,22,32,26,14,92,77,69,30.72,29.52,7,3,0,0.00
2012-2-3,37,26,12,25,16,9,89,68,36,30.49,29.65,9,2,0,0.00
2012-2-4,36,27,14,24,19,11,96,74,46,30.57,29.73,8,3,0,0.00
2012-2-5,36,20,7,16,11,4,90,72,38,30.48,29.60,6,2,0,0.00
2012-2-6,47,33,15,29,24,12,91,71,45,30.38,29.44,12,4,0,1.04
2012-2-7,41,32,20,29,24,12,88,73,59,30.54,29.50,10,3,0,0.00
2012-2-8,36,24,10,21,13,7,88,64,33,30.41,29.55,9,2,0,0.00
2012-2-9,44,30,21,23,19,15,88,65,34,30.37,29.54,8,2,0,0.00
2012-2-10,46,30,16,28,21,14,92,74,41,30.35,29.53,8,2,0,0.00
2012-2-11,37,29,12,26,21,2,86,72,56,30.16,29.27,8,3,0,0.00
2012-2-12,21,13,7,2,-2,-5,63,52,39,30.31,29.47,15,4,0,0.00
2012-2-13,37,23,5,22,14,-1,86,70,50,30.51,29.64,11,3,0,0.00
2012-2-14,39,28,16,28,21,14,92,77,49,30.29,29.55,7,2,0,0.00
2012-2-15,44,35,29,33,28,25,92,78,50,30.47,29.70,4,1,0,0.00
2012-2-16,40,33,24,33,30,23,97,88,68,30.42,29.50,7,3,0,0.00
2012-2-17,45,36,28,35,28,22,98,78,49,30.44,29.51,10,3,0,0.01
2012-2-18,42,34,28,28,24,20,93,69,49,30.46,29.53,10,2,0,0.00
2012-2-19,38,30,21,26,21,18,91,69,46,30.31,29.82,8,3,0,0.00
2012-2-21,35,32,32,32,30,24,97,92,63,30.10,29.72,12,3,0,0.00
2012-2-22,49,36,27,41,31,27,98,85,43,30.19,29.50,9,2,0,0.09
2012-2-23,45,35,26,32,29,25,98,79,48,30.34,29.40,8,3,0,0.00
2012-2-24,34,31,26,34,31,26,98,98,98,29.98,29.39,5,1,0,0.11
2012-2-25,41,32,23,37,28,13,98,85,53,30.00,29.36,16,5,0,0.24
2012-2-26,36,25,16,15,7,-2,91,50,19,30.43,29.64,16,3,0,0.00
2012-2-27,42,28,12,36,22,12,98,81,53,30.41,29.54,11,3,0,0.11
2012-2-28,40,34,23,34,24,18,98,70,42,30.44,29.77,12,4,0,0.04
2012-2-29,33,28,23,30,27,22,98,96,72,30.36,30.36,4,1,0,0.00
2012-3-1,29,25,21,28,25,21,98,98,98,38.60,38.60,2,0,0,0.00
2012-3-2,31,26,21,31,25,21,98,98,98,38.73,38.73,6,1,0,0.00
2012-3-3,42,34,28,41,32,23,98,93,58,38.55,38.55,12,3,0,1.03
2012-3-4,43,32,21,32,23,14,98,73,43,38.15,38.14,9,3,0,0.00
2012-3-5,33,23,10,16,11,7,98,62,41,38.23,38.21,10,4,0,0.00
2012-3-6,39,19,-2,16,3,-26,98,64,5,39.14,39.11,7,2,0,0.00
2012-3-7,54,39,30,38,32,30,98,82,45,39.06,39.06,13,3,0,0.00
2012-3-8,66,41,26,52,37,25,98,89,52,38.95,38.93,12,3,0,0.07
2012-3-9,42,34,27,42,28,18,98,80,44,38.41,38.41,10,4,0,0.02
2012-3-10,37,28,23,27,23,18,98,81,52,38.87,38.87,9,3,0,0.00
2012-3-11,57,34,18,39,26,18,98,78,36,0.00,40.00,15,3,0,0.00
2012-3-12,65,39,26,47,33,26,98,85,34,39.02,39.02,6,2,0,0.00
2012-3-13,60,41,33,58,40,33,98,96,76,38.82,38.82,12,3,0,0.01
2012-3-14,57,40,29,44,35,29,98,85,47,38.68,38.68,12,3,0,0.00
2012-3-15,45,39,31,45,38,30,98,98,98,39.01,39.00,6,2,0,0.05
2012-3-16,41,38,36,41,38,36,98,98,98,39.07,39.07,6,3,0,0.20
2012-3-17,54,40,32,51,39,31,98,97,79,38.97,38.97,9,2,0,0.00
2012-3-18,76,45,30,56,41,29,98,88,39,39.11,39.11,8,2,0,0.00
2012-3-19,78,50,34,60,45,34,98,86,44,38.91,38.89,5,2,0,0.00
2012-3-26,36,30,27,16,10,4,47,42,37,0.00,40.00,15,8,0,0.01
2012-3-27,44,32,23,44,9,-44,99,46,2,0.00,40.00,14,5,0,0.00
2012-3-28,46,35,28,43,27,12,98,75,47,38.88,38.88,8,2,0,0.09
2012-3-29,46,38,35,40,35,31,98,89,61,38.11,38.11,12,4,0,0.04
2012-3-30,47,37,30,34,21,7,98,58,21,38.62,38.62,13,4,0,0.00
2012-3-31,48,36,28,35,28,24,98,75,50,38.75,38.75,6,2,0,0.00
2012-4-1,47,36,23,43,32,23,98,88,55,38.54,38.54,8,2,0,0.12
2012-4-2,51,39,27,40,28,14,98,70,28,38.22,38.22,11,4,0,0.02
2012-4-3,56,39,24,55,14,-34,99,47,2,38.47,38.47,13,4,0,0.00
2012-4-4,57,42,27,42,29,19,98,66,27,38.35,38.35,17,3,0,0.01
2012-4-5,46,38,28,35,28,22,91,69,46,38.26,38.26,13,4,0,0.01
2012-4-6,50,36,23,28,23,19,98,64,30,38.57,38.57,11,4,0,0.00
2012-4-7,54,40,24,28,23,19,86,55,33,38.70,38.70,12,4,0,0.00
2012-4-8,56,43,32,33,29,26,90,59,36,38.68,38.68,12,3,0,0.00
2012-4-9,48,41,31,40,36,29,98,83,63,38.13,38.13,21,5,0,0.19
2012-4-10,50,43,33,38,35,30,98,75,54,38.15,38.15,13,4,0,0.01
2012-4-11,56,40,28,40,32,27,98,78,42,38.38,38.38,9,2,0,0.00
2012-4-12,57,42,32,46,36,30,98,83,38,38.68,38.57,11,3,0,0.05
2012-4-13,64,45,28,35,29,22,98,63,22,38.84,38.84,10,3,0,0.01
2012-4-14,68,50,29,68,29,-24,99,60,2,38.82,38.82,11,3,0,0.00
2012-4-15,76,57,37,57,48,35,98,74,51,38.68,38.68,9,3,0,0.00
2012-4-16,89,69,53,69,56,49,98,71,26,38.69,38.69,14,3,0,0.04
2012-4-17,75,62,50,56,42,29,98,53,23,38.54,38.53,12,4,0,0.00
2012-4-18,61,47,34,40,32,28,88,59,33,38.97,38.97,8,3,0,0.00
2012-4-19,74,50,28,45,35,8,98,65,8,38.85,38.85,10,3,0,0.00
2012-4-20,80,59,37,53,46,37,98,68,29,38.67,38.67,13,4,0,0.00
2012-4-21,76,59,46,59,52,44,98,78,55,38.50,38.50,16,4,0,0.04
2012-4-22,56,50,45,55,50,45,98,98,95,38.40,38.40,10,3,0,1.25
2012-4-23,61,49,43,60,49,43,98,98,98,38.29,38.29,11,3,0,1.85
2012-4-24,51,45,38,47,39,34,98,83,53,37.85,37.83,11,5,0,0.02
2012-4-25,56,43,31,40,34,31,98,74,43,38.24,38.24,16,3,0,0.14
2012-4-26,58,45,28,49,37,28,98,77,45,38.54,38.39,9,3,0,0.11
2012-4-27,48,42,35,48,34,24,98,74,56,38.10,38.10,18,5,0,0.01
2012-4-28,55,41,31,28,17,-33,80,47,2,38.76,38.75,10,4,0,0.00
2012-4-29,57,41,26,56,20,-32,99,56,2,38.86,38.85,14,4,0,0.00
2012-4-30,65,46,27,43,27,10,88,52,12,39.02,39.02,10,3,0,0.00
2012-5-1,50,47,41,50,45,15,99,95,28,38.90,38.90,10,2,0,0.83
2012-5-2,53,49,46,52,48,46,98,98,98,38.89,38.89,5,2,0,0.00
2012-5-3,54,49,45,53,48,44,98,98,98,38.91,38.83,6,3,0,0.30
2012-5-4,62,54,50,61,54,49,98,98,98,38.77,38.77,6,2,0,0.18
2012-5-5,68,55,42,58,50,41,98,87,46,38.64,38.61,7,2,0,0.14
2012-5-6,74,52,38,73,44,27,99,79,21,38.86,38.84,9,2,0,0.00
2012-5-7,74,55,32,52,39,30,98,65,21,38.85,38.85,7,3,0,0.00
2012-5-8,59,51,47,54,50,46,98,97,78,38.74,38.48,8,4,0,1.61
2012-5-9,63,58,52,63,57,52,98,98,98,38.46,38.46,6,2,0,0.01
2012-5-10,62,53,45,54,50,42,98,89,69,38.17,38.06,13,2,0,0.50
2012-5-11,68,52,39,43,38,30,98,66,24,38.32,38.29,14,4,0,0.00
2012-5-12,80,56,32,53,40,30,98,66,23,38.80,38.78,12,3,0,0.00
2012-5-13,51,50,50,50,50,50,97,97,95,38.89,38.89,3,2,0,0.00
2012-5-14,50,50,50,50,50,50,97,97,97,0.00,40.00,2,2,0,0.00
2012-5-15,50,50,50,50,50,50,97,97,97,0.00,40.00,2,2,0,0.00
2012-5-16,72,54,50,68,53,50,98,97,86,38.87,38.87,6,2,0,0.36
2012-5-17,70,53,41,55,43,38,98,73,31,38.82,38.60,10,3,0,0.00
2012-5-18,78,54,34,52,42,34,98,71,31,38.95,38.95,7,3,0,0.00
2012-5-19,85,61,41,60,49,40,98,71,29,38.94,38.94,9,2,0,0.00
2012-5-20,87,66,47,63,55,47,98,73,35,38.95,38.95,6,2,0,0.00
2012-5-21,77,60,47,63,54,46,98,82,53,39.08,39.08,8,2,0,0.00
2012-5-23,82,73,60,67,64,60,98,76,55,38.64,38.64,8,2,0,0.00
2012-5-24,74,66,58,69,64,57,98,93,79,38.79,38.79,6,2,0,0.20
2012-5-25,72,65,61,69,64,60,98,97,90,39.00,39.00,7,3,0,0.07
2012-5-26,86,70,59,72,60,38,98,76,19,38.82,38.82,8,2,0,0.00
2012-5-29,87,74,68,81,71,67,99,91,71,38.39,38.30,5,2,0,1.84
2012-5-30,80,69,60,75,66,56,98,91,44,38.36,38.36,8,1,0,0.00
2012-5-31,77,64,52,62,54,49,98,74,38,38.46,38.40,10,2,0,0.00
2012-6-1,72,60,45,55,50,44,98,73,49,38.69,38.69,6,2,0,0.00
2012-6-2,57,54,50,57,52,44,98,94,69,38.68,38.68,5,1,0,2.15
2012-6-3,68,57,51,62,55,50,98,93,65,38.38,38.38,6,1,0,0.27
2012-6-4,54,51,50,52,50,49,98,96,88,38.33,38.33,8,2,0,0.25
2012-6-5,68,53,46,57,51,46,98,93,60,38.49,38.49,5,1,0,0.15
2012-6-6,70,56,47,60,53,46,98,88,60,38.66,38.63,9,2,0,0.28
2012-6-7,71,57,46,61,54,46,98,89,63,38.68,38.68,6,1,0,0.00
2012-6-8,79,61,46,63,55,45,98,83,47,38.64,38.64,9,2,0,0.19
2012-6-9,78,63,47,62,55,46,98,79,43,38.49,38.49,6,2,0,0.02
2012-6-10,83,66,51,65,57,50,98,78,40,38.69,38.69,5,2,0,0.00
2012-6-11,90,65,55,59,56,-9,98,76,2,38.96,38.96,10,3,0,0.00
2012-6-12,73,63,53,66,60,53,98,90,70,38.94,38.93,9,2,0,0.45
2012-6-13,77,64,53,67,62,53,98,91,55,0.00,40.00,11,2,0,0.25
2012-6-14,83,63,48,59,54,48,98,76,39,38.89,38.89,8,2,0,0.00
2012-6-15,86,62,45,60,51,45,98,72,33,39.11,39.11,7,2,0,0.00
2012-6-16,81,64,46,61,54,46,98,75,40,39.14,39.14,7,2,0,0.00
2012-6-17,77,63,49,60,55,49,98,78,54,39.08,39.08,7,2,0,0.00
2012-6-18,74,62,54,59,56,53,98,82,56,38.88,38.88,9,3,0,0.00
2012-6-19,82,66,49,69,61,49,98,86,61,38.88,38.88,8,2,0,0.00
2012-6-20,97,78,63,78,70,62,98,81,51,38.76,38.76,7,2,0,0.00
2012-6-21,96,79,66,74,70,65,98,77,47,38.62,38.62,10,3,0,0.00
2012-6-22,91,75,62,74,67,61,98,79,46,38.45,38.40,8,2,0,0.00
2012-6-23,86,69,59,68,61,57,98,79,39,38.48,38.48,11,2,0,0.01
2012-6-24,84,69,51,61,55,47,98,68,32,38.66,38.66,8,2,0,0.00
2012-6-25,71,62,56,66,61,56,98,96,80,38.55,38.55,4,1,0,1.03
2012-6-26,63,58,50,60,56,50,98,93,83,38.31,38.29,7,2,0,0.11
2012-6-27,75,64,56,60,57,55,98,82,58,38.22,38.18,10,3,0,0.01
2012-6-28,85,68,51,65,58,51,98,74,37,38.41,38.41,11,2,0,0.00
2012-6-29,90,71,56,76,62,55,98,78,36,38.35,38.35,17,3,0,0.17
2012-6-30,87,72,53,68,60,53,98,71,42,38.30,38.30,10,3,0,0.00
2012-7-1,89,73,58,68,61,56,98,72,35,38.38,38.37,8,2,0,0.00
2012-7-2,85,70,61,68,62,57,98,77,43,38.56,38.56,8,2,0,0.01
2012-7-3,84,69,53,66,58,50,98,73,33,38.60,38.60,9,2,0,0.00
2012-7-4,90,73,62,75,68,61,98,86,53,38.50,38.50,8,2,0,0.50
2012-7-5,81,70,60,68,64,60,98,83,56,38.38,38.38,10,2,0,0.00
2012-7-6,89,71,53,72,63,53,98,81,42,38.59,38.59,5,2,0,0.00
2012-7-7,79,71,62,75,68,62,98,90,70,38.51,38.51,5,1,0,0.00
2012-7-8,85,71,57,69,60,56,98,71,44,38.49,28.94,13,2,13,0.00
2012-7-9,84,65,49,64,54,49,98,72,37,29.15,29.04,10,2,13,0.00
2012-7-10,84,64,45,64,54,45,98,75,34,29.24,29.14,8,2,9,0.00
2012-7-11,90,67,49,67,56,47,98,73,28,29.33,23.41,6,2,7,0.00
2012-7-12,95,72,53,69,59,51,98,72,26,29.33,29.22,8,2,10,0.00
2012-7-13,93,73,57,72,64,56,98,78,36,29.33,29.23,10,2,11,0.00
2012-7-14,93,75,63,73,66,61,98,78,38,29.30,29.20,8,1,10,0.00
2012-7-15,86,72,59,77,68,58,98,89,57,29.25,29.01,5,1,6,0.33
2012-7-16,89,74,65,76,70,64,98,90,54,29.01,28.90,8,1,10,0.08
2012-7-17,95,78,64,82,70,14,98,81,27,28.95,28.77,16,2,18,0.15
2012-7-18,86,82,75,86,66,-28,98,79,1,28.99,28.84,8,2,9,0.02
2012-7-19,82,71,60,100,60,54,92,67,43,29.18,28.98,9,2,12,0.02
2012-7-20,76,64,54,65,58,53,98,82,56,29.23,29.15,8,1,8,0.00
2012-7-21,89,67,50,66,55,10,98,73,32,29.37,29.15,7,2,9,0.00
2012-7-22,76,68,53,67,62,53,98,83,74,29.26,29.22,3,2,5,0.00
2012-7-23,76,76,71,71,67,67,98,74,74,29.25,28.88,3,3,5,0.00
2012-7-24,83,71,63,76,65,-37,98,84,1,28.88,28.72,14,3,18,0.27
2012-7-25,63,63,63,57,57,57,80,80,80,28.87,28.87,2,2,2,0.00
2012-7-26,63,63,63,57,57,57,80,80,80,28.87,28.87,2,2,2,0.00
2012-7-27,63,63,63,57,57,57,80,80,80,28.87,28.87,2,2,2,0.00
2012-7-28,63,63,63,57,57,57,80,80,80,28.87,28.87,2,2,2,0.00
2012-7-29,63,63,62,62,57,57,98,81,80,29.21,28.87,2,2,2,0.00
2012-7-30,82,70,60,73,66,60,98,90,64,29.25,29.17,7,2,10,0.00
2012-7-31,84,70,60,69,64,52,98,83,52,29.22,29.06,9,2,10,0.00
2012-8-1,85,69,56,74,66,56,98,90,67,29.21,28.93,6,1,8,0.00
2012-8-2,89,73,62,74,67,62,98,84,47,29.14,28.96,7,1,9,0.00
2012-8-3,90,73,60,76,68,59,98,85,52,29.24,29.04,7,2,8,0.00
2012-8-4,92,75,63,77,69,63,98,84,51,29.34,23.41,8,2,11,0.00
2012-8-5,90,75,64,78,72,63,98,91,64,29.33,29.01,10,3,14,0.00
2012-8-6,79,70,58,72,65,57,98,86,54,29.14,29.05,8,2,9,0.00
2012-8-7,88,66,51,67,60,51,98,82,42,29.16,29.05,7,2,9,0.00
2012-8-8,127,62,52,70,58,51,98,89,49,29.14,23.95,5,1,6,0.00
2012-9-1,116,70,58,75,65,52,98,86,55,29.23,29.06,8,2,9,0.00
2012-9-2,82,66,52,74,59,50,98,83,36,29.28,29.18,13,2,16,0.00
2012-9-3,80,63,48,69,57,47,98,85,45,29.34,29.23,10,2,11,0.00
2012-9-4,69,64,60,68,64,59,98,98,98,29.24,28.95,5,1,6,0.07
2012-9-5,80,68,59,78,67,59,98,98,88,29.00,28.90,10,2,14,0.01
2012-9-6,81,65,54,80,64,54,98,98,91,29.04,28.95,8,2,9,0.02
2012-9-7,86,67,55,77,64,40,98,90,44,29.07,29.00,8,2,10,0.01
2012-9-8,82,69,59,79,68,58,98,97,86,29.01,28.67,14,4,18,0.79
2012-9-9,74,61,52,66,57,52,98,89,57,28.99,28.84,10,2,12,0.01
2012-9-10,59,59,59,58,58,58,98,98,98,28.97,28.97,0,0,0,0.00
2012-9-11,75,59,45,58,54,42,98,87,34,29.40,28.97,8,1,9,0.00
2012-9-12,45,42,40,44,42,39,98,98,98,29.48,29.40,3,0,3,0.00
2012-9-13,43,43,43,42,42,42,98,98,98,29.48,29.48,0,0,0,0.00
2012-9-14,43,43,43,42,42,42,98,98,98,29.48,29.48,0,0,0,0.00
2012-9-15,70,62,54,57,53,50,98,76,54,29.21,29.16,10,4,14,0.02
2012-9-16,54,54,54,54,54,54,98,98,98,29.17,29.17,3,3,3,0.00
2012-9-17,78,59,52,69,56,51,98,91,57,29.17,29.11,8,3,10,0.00
2012-9-18,71,59,47,69,58,47,98,98,98,29.15,28.71,12,3,15,2.58
2012-9-19,68,56,40,65,50,39,98,84,45,29.34,28.74,11,3,15,0.01
2012-9-20,67,48,33,59,44,31,98,87,54,29.41,29.25,8,2,10,0.00
2012-9-21,73,55,43,64,52,42,98,89,59,29.28,29.15,10,2,13,0.00
2012-9-22,69,56,45,69,56,44,98,98,98,29.18,28.92,10,2,10,0.53
2012-9-23,68,54,38,59,50,38,98,87,46,29.23,28.93,12,2,15,0.06
2012-9-24,65,45,32,55,40,31,98,85,44,29.27,29.17,16,2,16,0.00
2012-9-25,73,49,31,57,43,31,98,83,38,29.24,29.17,10,3,15,0.00
2012-9-26,70,62,54,69,61,54,98,98,98,29.28,29.10,8,2,10,0.00
2012-9-27,66,54,39,58,49,39,98,85,47,29.38,29.12,9,2,14,0.06
2012-9-28,52,46,37,51,46,36,98,98,98,29.39,29.14,3,1,5,1.52
2012-9-29,58,53,50,57,52,50,98,98,98,29.14,29.00,5,1,7,0.16
2012-9-30,60,54,48,59,53,48,98,98,98,29.03,23.38,6,1,7,0.45
2012-10-1,62,53,49,61,53,48,98,98,98,29.05,28.77,9,2,12,0.21
2012-10-2,64,56,48,64,55,47,98,98,98,29.19,29.05,5,1,6,0.02
2012-10-3,65,60,57,65,59,56,98,98,98,29.27,29.17,3,0,4,0.16
2012-10-4,64,61,57,63,60,57,98,98,98,29.34,29.14,6,1,6,0.16
2012-10-5,78,60,50,73,58,50,98,95,48,29.16,29.03,8,1,9,0.04
2012-10-6,69,58,47,68,57,45,98,97,79,29.06,28.81,13,2,16,0.01
2012-10-7,55,47,39,50,44,38,98,91,63,29.18,29.06,6,2,7,0.23
2012-10-8,49,44,42,49,43,41,98,98,98,29.34,29.17,4,0,4,0.02
2012-10-9,53,53,53,52,52,52,98,98,98,29.38,29.34,2,1,2,0.02
2012-10-10,55,52,46,54,51,46,98,98,98,28.96,28.85,8,2,9,0.18
2012-10-11,54,44,32,46,40,32,98,87,57,29.21,23.38,12,3,15,0.02
2012-10-12,52,38,27,45,33,26,98,84,46,29.47,29.09,13,3,16,0.03
2012-10-13,52,37,23,41,30,22,98,81,38,29.74,29.35,9,2,11,0.00
2012-10-14,55,46,38,55,46,38,98,98,98,29.37,28.99,8,2,9,0.52
2012-10-15,72,55,43,71,55,37,98,98,93,28.99,28.73,11,2,14,0.15
2012-10-16,54,45,31,54,42,31,98,88,61,29.18,28.72,14,3,20,0.01
2012-10-17,62,41,28,51,36,27,98,88,45,29.11,29.01,6,2,7,0.00
2012-10-18,64,47,32,55,42,31,98,86,56,29.18,29.10,12,3,15,0.00
2012-10-19,58,57,56,58,56,54,98,98,98,29.84,28.83,6,1,6,1.49
2012-10-20,74,57,42,66,55,41,98,92,51,28.86,28.70,8,2,10,0.01
2012-10-21,62,48,36,53,44,36,98,90,58,29.00,28.86,16,2,22,0.01
2012-10-22,64,51,42,53,46,41,98,85,51,29.12,28.99,14,3,19,0.10
2012-10-23,64,48,36,58,45,36,98,92,63,29.26,29.12,8,2,8,0.10
2012-10-24,58,47,39,52,42,36,98,85,48,29.33,29.24,5,1,6,0.00
2012-10-25,58,47,38,53,43,37,98,89,54,29.39,29.33,7,1,9,0.00
2012-10-26,65,51,41,64,51,41,98,98,94,29.35,29.22,8,2,10,0.00
2012-10-27,46,45,44,45,45,43,98,98,98,29.25,29.22,2,0,2,0.00
2012-10-28,51,50,50,51,50,49,98,98,98,29.25,28.98,12,4,15,0.00
2012-10-29,59,53,49,59,53,-31,98,98,98,28.98,28.34,19,6,23,1.51
2012-10-30,65,58,53,63,57,52,98,97,82,28.67,28.38,14,4,21,0.30
2012-10-31,53,49,43,52,49,13,98,98,91,28.66,28.57,14,3,14,0.07
2012-11-1,50,44,40,48,44,40,98,98,95,28.65,23.29,6,2,8,0.01
2012-11-2,51,43,40,45,41,37,98,93,70,28.82,28.64,10,2,12,0.00
2012-11-3,46,41,36,40,37,34,98,87,69,28.95,28.75,10,3,14,0.00
2012-11-4,43,39,34,40,36,-7,98,91,78,29.07,28.94,10,3,13,0.00
2012-11-5,40,33,22,30,24,18,98,71,49,29.23,29.07,10,3,12,0.00
2012-11-6,41,26,18,24,20,16,98,81,42,29.32,29.23,8,2,11,0.00
2012-11-7,34,27,17,26,21,17,98,78,60,29.32,28.99,12,3,16,0.00
2012-11-8,40,36,33,34,27,21,94,70,58,28.99,28.88,14,6,19,0.00
2012-11-9,49,40,35,41,33,26,98,77,43,29.20,28.92,10,3,12,0.00
2012-11-10,53,39,30,41,34,29,98,84,47,29.54,29.19,10,2,12,0.00
2012-11-11,59,43,31,51,40,-7,98,92,68,29.55,29.46,11,2,14,0.00
2012-11-12,62,48,33,60,47,32,98,95,76,29.66,29.24,11,3,15,0.00
2012-11-13,63,46,36,62,46,36,98,98,98,29.53,29.15,11,3,15,0.40
2012-11-15,40,31,23,36,28,22,98,89,62,29.53,29.42,5,1,6,0.40
2012-11-16,43,28,19,38,26,19,98,93,57,29.57,29.41,8,1,9,0.00
2012-11-17,48,29,20,38,27,20,98,92,58,29.77,29.57,7,2,9,0.00
2012-11-18,45,28,18,36,26,18,98,92,64,29.83,29.72,7,2,9,0.00
2012-11-19,46,27,17,37,24,17,98,91,52,29.72,29.39,6,2,7,0.00
2012-11-20,48,30,19,36,26,18,98,90,50,29.39,24.39,7,2,8,0.00
2012-11-21,50,32,24,38,29,24,98,90,48,29.38,29.28,5,1,6,0.00
2012-11-22,54,32,21,40,29,21,98,91,51,29.39,29.21,7,2,10,0.00
2012-11-23,53,35,22,44,33,21,98,93,61,29.22,28.72,10,2,13,0.00
2012-11-24,43,36,29,42,26,18,98,70,48,28.76,28.65,14,4,19,0.00
2012-11-25,38,30,26,30,20,14,98,67,44,28.92,28.75,12,4,17,0.00
2012-11-26,42,32,24,33,28,21,98,86,51,29.38,28.92,11,2,14,0.00
2012-11-27,38,27,20,35,26,19,98,96,80,31.62,29.31,4,1,5,0.00
2012-11-28,38,25,16,34,23,16,98,92,59,29.34,29.21,5,1,7,0.00
2012-11-29,41,32,21,36,28,20,98,86,52,29.32,29.21,16,3,22,0.06
2012-11-30,32,25,21,32,12,1,98,61,35,29.64,25.40,9,3,10,0.00
2012-12-1,28,24,20,27,23,9,98,95,57,29.70,29.56,5,1,6,0.00
2012-12-2,43,34,28,42,34,27,98,98,98,29.66,29.10,9,2,11,0.23
2012-12-3,57,45,32,56,44,32,98,98,98,29.39,29.09,8,2,10,0.06
2012-12-4,55,41,28,54,41,27,98,98,98,29.39,29.00,9,2,10,0.01
2012-12-5,52,41,27,51,36,18,98,84,66,29.27,28.94,14,4,15,0.15
2012-12-6,28,24,21,25,20,17,98,87,69,29.42,29.27,11,2,12,0.00
2012-12-7,37,28,18,35,27,18,98,95,78,29.35,29.12,7,1,7,0.12
2012-12-8,39,35,32,39,34,31,98,98,98,29.13,28.96,3,0,4,0.25
2012-12-9,42,34,29,40,33,28,98,97,74,29.37,29.04,6,2,7,0.02
2012-12-10,44,36,32,43,36,32,98,98,98,29.24,28.59,9,1,13,0.83
2012-12-11,40,35,26,40,32,24,98,91,69,29.24,28.70,9,2,13,0.01
2012-12-12,41,28,20,34,25,19,98,88,60,29.50,29.24,13,2,16,0.04
2012-12-13,41,26,18,34,24,18,98,93,62,29.56,29.37,6,1,7,0.00
2012-12-14,45,30,16,36,26,16,98,89,51,29.37,29.17,10,2,13,0.00
2012-12-15,39,29,21,34,26,20,98,87,58,29.43,29.26,8,2,9,0.00
2012-12-16,25,24,22,23,22,21,98,93,86,29.40,29.38,2,0,2,0.00
2012-12-17,33,32,31,32,31,30,98,98,98,29.42,28.93,2,0,4,0.00
2012-12-18,32,32,32,32,32,30,98,98,98,28.93,28.58,3,1,5,0.09
2012-12-19,40,36,32,39,35,32,98,98,96,29.17,28.58,16,3,16,0.57
2012-12-20,34,29,24,33,28,24,98,98,98,29.31,29.17,6,1,8,0.00
2012-12-21,47,36,32,46,35,32,98,98,98,29.00,28.09,22,2,25,2.53
2012-12-22,36,29,23,35,25,17,98,86,64,28.77,28.28,15,4,20,0.00
2012-12-23,38,28,21,31,23,11,98,79,59,28.91,28.77,13,3,21,0.00
2012-12-24,35,28,22,31,23,18,98,83,55,29.15,28.91,8,2,10,0.00
2012-12-25,32,23,14,29,22,13,98,95,79,32.45,29.09,10,2,11,0.00
2012-12-26,30,20,7,26,15,7,98,85,63,29.44,29.04,7,2,8,0.00
2012-12-27,32,28,24,32,28,23,98,98,98,29.04,28.57,9,2,11,0.00
2012-12-29,26,23,19,25,23,19,98,98,98,29.08,28.62,4,0,5,0.00
2012-12-30,30,20,10,24,16,8,98,85,61,29.12,28.62,13,2,21,0.00
2012-12-31,30,20,9,30,20,8,98,98,86,29.10,28.83,8,2,12,0.00
2013-1-1,36,24,1,32,16,0,98,75,49,29.02,28.78,16,4,18,0.00